{"data":{"norad_id":51881,"epoch":"2026-05-25T00:22:52.646304Z","epoch_age_seconds":76863,"freshness":"FRESH","line1":"1 51881U 22022AF  26145.01588711  .00000361  00000+0  40775-4 0  9996","line2":"2 51881  53.2146  16.4784 0001337  89.9092 270.2053 15.08840194234825","mean_motion":15.08840194,"eccentricity":0.0001337,"inclination_deg":53.2146,"raan_deg":16.4784,"arg_perigee_deg":89.9092,"mean_anomaly_deg":270.2053,"bstar":4.0775e-5,"rev_number":23482,"period_min":95.437542406827,"perigee_km":538.81787545506,"apogee_km":540.6677165125,"semimajor_km":6917.8797959838,"source":"CELESTRAK","updated_at":"2026-05-25T13:38:16.986006Z"}}